QPF
0.00 0.00 0.00 0.00 0.00 0.00 0.00 0.00 0.00 0.00 0.00 0.00 0.00 0.00 0.00 0.00 0.00 0.00 0.00 0.00 0.00 0.00 0.00 0.00 0.00 0.00 0.00 0.00 0.00 0.00 0.00 0.00 0.00 0.00 0.00 0.00 0.00 0.00 0.00 0.00 0.00 0.00 0.00 0.00
0.00 0.00 0.00 0.00 0.00 0.00 0.00 0.00 0.00 0.00 0.00 0.00 0.00 0.00 0.00 0.00 0.00 0.00 0.00 0.00 0.00 0.00 0.00 0.00 0.00 0.00 0.00 0.00 0.00 0.00 0.00 0.00 0.00 0.00 0.00 0.00 0.00 0.00 0.00 0.00 0.00 0.00 0.00 0.01
0.00 0.00 0.00 0.00 0.00 0.00 0.00 0.00 0.00 0.00 0.00 0.00 0.00 0.00 0.00 0.00 0.00 0.00 0.00 0.00 0.00 0.00 0.00 0.00 0.00 0.00 0.00 0.00 0.00 0.00 0.00 0.00 0.00 0.00 0.00 0.00 0.00 0.00 0.00 0.00 0.00 0.00 0.02 0.04
0.00 0.00 0.00 0.00 0.00 0.00 0.00 0.00 0.00 0.00 0.00 0.00 0.00 0.00 0.00 0.00 0.00 0.00 0.00 0.00 0.00 0.00 0.00 0.00 0.00 0.00 0.00 0.00 0.00 0.00 0.00 0.00 0.00 0.00 0.00 0.00 0.00 0.00 0.00 0.00 0.01 0.05 0.09 0.06
0.00 0.00 0.00 0.00 0.00 0.00 0.00 0.00 0.00 0.00 0.00 0.00 0.00 0.00 0.00 0.00 0.00 0.00 0.00 0.00 0.00 0.00 0.00 0.00 0.00 0.00 0.00 0.00 0.00 0.00 0.00 0.00 0.00 0.00 0.00 0.00 0.00 0.01 0.02 0.03 0.06 0.08 0.07 0.05
0.00 0.00 0.00 0.00 0.00 0.00 0.00 0.00 0.00 0.00 0.00 0.00 0.00 0.00 0.00 0.00 0.00 0.00 0.00 0.00 0.00 0.00 0.00 0.00 0.00 0.00 0.00 0.00 0.00 0.00 0.00 0.00 0.00 0.00 0.00 0.00 0.02 0.04 0.07 0.10 0.11 0.05 0.03 0.02
0.00 0.00 0.00 0.00 0.00 0.00 0.00 0.00 0.00 0.00 0.00 0.00 0.00 0.00 0.00 0.00 0.00 0.00 0.00 0.00 0.00 0.00 0.00 0.00 0.00 0.00 0.00 0.00 0.00 0.00 0.00 0.00 0.00 0.00 0.00 0.00 0.03 0.08 0.09 0.11 0.09 0.04 0.02 0.01
0.00 0.00 0.00 0.00 0.00 0.00 0.00 0.00 0.00 0.00 0.00 0.00 0.00 0.00 0.00 0.00 0.00 0.00 0.00 0.00 0.00 0.00 0.00 0.00 0.00 0.00 0.00 0.00 0.00 0.00 0.00 0.00 0.00 0.00 0.00 0.02 0.06 0.06 0.05 0.04 0.05 0.03 0.00 0.00
0.00 0.00 0.00 0.00 0.00 0.00 0.00 0.00 0.00 0.00 0.00 0.00 0.00 0.00 0.00 0.00 0.00 0.00 0.00 0.00 0.00 0.00 0.00 0.00 0.00 0.00 0.00 0.00 0.00 0.00 0.00 0.00 0.00 0.00 0.00 0.03 0.04 0.02 0.02 0.03 0.02 0.00 0.00 0.00
0.00 0.00 0.00 0.00 0.00 0.00 0.00 0.00 0.00 0.00 0.00 0.00 0.00 0.00 0.00 0.00 0.00 0.00 0.00 0.00 0.00 0.00 0.00 0.00 0.00 0.00 0.00 0.00 0.00 0.00 0.00 0.00 0.00 0.00 0.00 0.01 0.01 0.00 0.01 0.01 0.00 0.00 0.00 0.00
0.00 0.00 0.00 0.00 0.00 0.00 0.00 0.00 0.00 0.00 0.00 0.00 0.00 0.00 0.00 0.00 0.00 0.00 0.00 0.00 0.00 0.00 0.00 0.00 0.00 0.00 0.00 0.00 0.00 0.00 0.00 0.00 0.00 0.00 0.00 0.00 0.00 0.00 0.00 0.00 0.00 0.00 0.00 0.00
0.00 0.00 0.00 0.00 0.00 0.00 0.00 0.00 0.00 0.00 0.00 0.00 0.00 0.00 0.00 0.00 0.00 0.00 0.00 0.00 0.00 0.00 0.00 0.00 0.00 0.00 0.00 0.00 0.00 0.00 0.00 0.00 0.00 0.02 0.01 0.00 0.00 0.00 0.00 0.00 0.00 0.00 0.00 0.00
0.00 0.00 0.00 0.00 0.00 0.00 0.00 0.00 0.00 0.00 0.00 0.00 0.00 0.00 0.00 0.00 0.00 0.00 0.00 0.00 0.00 0.00 0.00 0.00 0.00 0.00 0.00 0.00 0.00 0.00 0.00 0.00 0.00 0.03 0.03 0.00 0.00 0.00 0.00 0.00 0.00 0.00 0.00 0.00
0.00 0.00 0.00 0.00 0.00 0.00 0.00 0.00 0.00 0.00 0.00 0.00 0.00 0.00 0.00 0.00 0.00 0.00 0.00 0.00 0.00 0.00 0.00 0.00 0.00 0.00 0.00 0.00 0.00 0.00 0.00 0.00 0.00 0.00 0.00 0.00 0.00 0.00 0.00 0.00 0.00 0.00 0.00 0.00
0.00 0.00 0.00 0.00 0.00 0.00 0.00 0.00 0.00 0.00 0.00 0.00 0.00 0.00 0.00 0.00 0.00 0.00 0.00 0.00 0.00 0.00 0.00 0.00 0.00 0.00 0.00 0.00 0.00 0.00 0.00 0.00 0.00 0.00 0.00 0.00 0.00 0.00 0.00 0.00 0.00 0.00 0.00 0.00
0.00 0.00 0.00 0.00 0.00 0.00 0.00 0.00 0.00 0.00 0.00 0.00 0.00 0.00 0.00 0.00 0.00 0.00 0.00 0.00 0.00 0.00 0.00 0.00 0.00 0.00 0.00 0.00 0.00 0.00 0.00 0.00 0.00 0.00 0.00 0.00 0.00 0.00 0.00 0.00 0.00 0.00 0.00 0.00
0.00 0.00 0.00 0.00 0.00 0.00 0.00 0.00 0.00 0.00 0.00 0.00 0.00 0.00 0.00 0.00 0.00 0.00 0.00 0.00 0.00 0.00 0.00 0.00 0.00 0.00 0.00 0.00 0.00 0.00 0.00 0.00 0.00 0.00 0.00 0.00 0.00 0.00 0.00 0.00 0.00 0.00 0.00 0.00
0.00 0.00 0.01 0.00 0.00 0.00 0.00 0.00 0.00 0.00 0.00 0.00 0.00 0.00 0.00 0.00 0.00 0.00 0.00 0.00 0.00 0.00 0.00 0.00 0.00 0.00 0.00 0.00 0.00 0.00 0.00 0.00 0.00 0.00 0.00 0.00 0.00 0.00 0.00 0.00 0.00 0.00 0.00 0.00
0.00 0.00 0.00 0.00 0.00 0.00 0.00 0.00 0.00 0.00 0.00 0.00 0.00 0.00 0.00 0.00 0.00 0.00 0.00 0.00 0.00 0.00 0.00 0.00 0.00 0.00 0.00 0.00 0.00 0.00 0.00 0.00 0.00 0.00 0.00 0.00 0.00 0.00 0.00 0.00 0.00 0.00 0.00 0.00
0.00 0.00 0.00 0.00 0.00 0.00 0.00 0.00 0.00 0.00 0.00 0.00 0.00 0.00 0.00 0.00 0.00 0.00 0.00 0.00 0.00 0.00 0.00 0.00 0.00 0.00 0.00 0.00 0.00 0.00 0.00 0.00 0.00 0.00 0.00 0.00 0.00 0.00 0.00 0.00 0.00 0.00 0.00 0.00
0.00 0.00 0.00 0.00 0.00 0.00 0.00 0.00 0.00 0.00 0.00 0.00 0.00 0.00 0.00 0.00 0.00 0.00 0.00 0.00 0.00 0.00 0.00 0.00 0.00 0.00 0.00 0.00 0.00 0.00 0.00 0.00 0.00 0.00 0.00 0.00 0.00 0.00 0.00 0.00 0.00 0.00 0.00 0.00
0.00 0.00 0.00 0.00 0.00 0.00 0.00 0.00 0.00 0.00 0.00 0.00 0.00 0.00 0.00 0.00 0.00 0.00 0.00 0.00 0.00 0.00 0.00 0.00 0.00 0.00 0.00 0.00 0.00 0.00 0.00 0.00 0.00 0.00 0.00 0.00 0.00 0.00 0.00 0.00 0.00 0.00 0.00 0.00
0.00 0.00 0.00 0.00 0.00 0.00 0.00 0.00 0.00 0.00 0.00 0.00 0.00 0.00 0.00 0.00 0.00 0.00 0.00 0.00 0.00 0.00 0.00 0.00 0.00 0.00 0.00 0.00 0.00 0.00 0.00 0.00 0.00 0.00 0.00 0.00 0.00 0.00 0.00 0.00 0.00 0.00 0.00 0.00
0.00 0.01 0.01 0.01 0.00 0.00 0.00 0.00 0.00 0.00 0.00 0.00 0.00 0.00 0.00 0.00 0.00 0.00 0.00 0.00 0.00 0.00 0.00 0.00 0.00 0.00 0.00 0.00 0.00 0.00 0.00 0.00 0.00 0.00 0.00 0.00 0.00 0.00 0.00 0.00 0.00 0.00 0.00 0.00
0.00 0.00 0.00 0.00 0.00 0.00 0.00 0.00 0.00 0.00 0.00 0.00 0.00 0.00 0.00 0.00 0.00 0.00 0.00 0.00 0.00 0.00 0.00 0.00 0.00 0.00 0.00 0.00 0.00 0.00 0.00 0.00 0.00 0.00 0.00 0.00 0.00 0.00 0.00 0.00 0.00 0.00 0.00 0.00
0.00 0.00 0.00 0.00 0.00 0.00 0.00 0.00 0.00 0.00 0.00 0.00 0.00 0.00 0.00 0.00 0.00 0.00 0.00 0.00 0.00 0.00 0.00 0.00 0.00 0.00 0.00 0.00 0.00 0.00 0.00 0.00 0.00 0.00 0.00 0.00 0.00 0.00 0.00 0.00 0.00 0.00 0.00 0.00
MSLP
1005.97 1005.66 1004.95 1004.14 1003.88 1003.63 1002.93 1002.15 1001.42 1000.22 999.66 999.78 1000.13 1000.27 999.97 999.37 998.85 998.51 998.91 999.41 999.50 999.79 1000.05 1000.44 1000.79 1001.31 1002.01 1002.74 1003.91 1005.12 1006.69 1008.32 1009.84 1010.90 1011.22 1011.50 1011.81 1012.40 1012.68 1012.83 1013.00 1013.28 1013.42 1013.71
1005.52 1004.68 1004.20 1003.98 1003.50 1003.12 1002.77 1002.44 1001.97 1001.21 1000.49 1000.19 999.99 999.89 999.69 998.94 998.23 998.00 997.97 998.46 998.96 999.32 999.69 999.86 1000.16 1000.92 1001.62 1002.39 1003.42 1004.66 1006.05 1007.40 1008.83 1010.03 1010.83 1011.34 1011.67 1011.96 1012.32 1012.59 1012.62 1012.72 1012.74 1013.04
1004.66 1003.41 1003.59 1003.86 1003.59 1003.22 1003.06 1002.91 1002.40 1001.71 1000.92 1000.48 1000.47 999.87 999.12 998.06 997.54 997.42 997.33 997.65 997.97 998.33 998.79 999.44 999.95 1000.88 1001.68 1002.48 1003.31 1004.08 1005.15 1006.44 1007.75 1008.95 1010.18 1010.99 1011.46 1011.87 1012.06 1012.13 1012.03 1012.14 1012.21 1012.48
1003.81 1002.98 1002.87 1003.51 1003.43 1003.17 1002.92 1002.66 1002.32 1002.01 1001.77 1001.03 1000.41 999.12 997.84 996.96 996.18 996.68 996.91 997.35 997.61 998.06 998.77 999.66 1000.40 1001.23 1002.02 1002.84 1003.52 1004.09 1004.51 1005.21 1006.69 1007.90 1008.91 1009.75 1010.54 1010.82 1010.97 1011.27 1011.60 1011.74 1011.82 1012.23
1003.15 1002.74 1002.74 1002.84 1003.15 1003.05 1002.96 1003.08 1002.79 1002.46 1002.14 1001.65 1000.76 999.84 998.02 996.97 996.10 996.01 996.44 996.89 997.47 998.31 999.28 1000.18 1000.97 1001.55 1002.21 1003.03 1003.75 1004.34 1004.72 1005.06 1006.07 1007.06 1007.76 1008.51 1009.23 1010.04 1010.30 1010.62 1010.83 1011.03 1011.48 1011.84
1003.14 1002.54 1002.75 1002.55 1002.46 1002.89 1002.98 1003.40 1003.19 1002.97 1002.67 1001.86 1000.69 999.92 998.00 997.00 995.82 995.74 996.69 997.37 998.10 999.00 999.86 1000.65 1001.34 1002.20 1002.80 1003.31 1004.11 1004.79 1005.26 1005.42 1006.23 1007.07 1007.66 1007.98 1008.41 1009.21 1009.79 1010.12 1010.44 1010.80 1011.09 1011.54
1002.71 1002.19 1002.39 1002.59 1002.36 1002.70 1003.25 1003.40 1002.93 1002.55 1002.16 1000.99 999.72 998.83 997.62 996.38 996.51 996.77 997.39 998.26 999.07 999.83 1000.34 1000.93 1001.79 1002.76 1003.22 1003.81 1004.70 1005.36 1005.58 1005.76 1006.16 1006.72 1007.30 1007.69 1007.90 1008.28 1008.83 1009.36 1009.92 1010.32 1011.03 1011.48
1001.46 1000.88 1000.82 1001.52 1001.82 1001.75 1002.46 1002.76 1002.76 1002.02 1001.70 1000.88 999.93 999.12 997.70 997.01 996.92 997.38 997.74 998.07 998.97 999.71 1000.29 1001.01 1001.54 1001.99 1002.88 1003.78 1004.71 1005.57 1005.88 1005.89 1006.17 1006.62 1007.06 1007.47 1007.74 1007.85 1008.35 1008.97 1009.62 1010.17 1010.62 1011.08
1000.99 1000.13 999.60 1000.50 1001.42 1001.78 1001.59 1001.80 1002.36 1002.40 1002.39 1001.77 1000.87 999.38 998.06 997.09 996.91 997.30 997.82 998.33 998.97 999.57 1000.14 1000.89 1001.64 1002.23 1002.76 1003.52 1004.34 1005.26 1005.83 1006.05 1006.29 1006.59 1006.90 1007.15 1007.19 1007.68 1008.12 1008.68 1009.36 1009.67 1010.00 1010.44
1001.42 1001.02 1000.41 1000.22 1000.91 1001.17 1001.48 1001.82 1001.97 1002.29 1002.31 1001.60 1000.56 999.25 997.99 997.50 997.13 997.58 997.95 998.46 999.07 999.54 999.96 1000.48 1001.31 1001.89 1002.47 1003.02 1003.59 1004.33 1004.95 1005.34 1005.81 1006.25 1006.49 1006.62 1006.64 1007.07 1007.53 1008.03 1008.64 1008.90 1009.39 1010.03
1001.75 1001.83 1001.16 1000.59 1000.77 1001.05 1001.20 1001.63 1001.96 1002.25 1002.41 1001.68 1000.88 999.65 998.76 998.38 998.46 998.48 998.50 998.47 998.74 999.16 999.73 1000.26 1000.94 1001.51 1001.99 1002.55 1003.26 1003.98 1004.49 1004.78 1005.04 1005.41 1005.73 1006.07 1006.42 1006.86 1007.31 1007.84 1008.27 1008.79 1009.45 1010.12
1002.16 1001.94 1001.34 1000.95 1000.58 1000.69 1000.79 1000.78 1001.21 1001.51 1001.66 1001.15 1000.48 998.81 999.29 998.77 998.49 998.40 998.46 998.60 998.89 999.17 999.49 999.93 1000.28 1000.78 1001.40 1001.87 1002.43 1002.87 1003.39 1004.07 1004.36 1004.68 1005.23 1005.72 1006.04 1006.66 1007.34 1008.02 1008.36 1008.91 1009.48 1010.02
1002.84 1002.46 1001.98 1001.51 1001.40 1000.73 1000.36 1000.34 1000.79 1001.26 1001.46 1000.83 1000.53 998.60 999.28 998.81 998.70 998.59 998.47 998.51 998.65 998.88 999.27 999.64 1000.11 1000.54 1000.80 1001.11 1001.51 1001.88 1002.26 1002.83 1003.52 1003.90 1004.83 1005.23 1005.66 1006.24 1006.83 1007.41 1007.96 1008.57 1009.43 1010.28
1003.69 1003.14 1002.40 1001.67 1001.42 1001.04 1000.24 999.97 1000.14 1000.54 1000.31 1000.10 999.16 998.54 998.97 998.67 998.55 998.05 997.80 997.73 997.82 998.01 998.35 998.76 999.25 999.53 999.89 1000.15 1000.40 1000.96 1001.48 1001.91 1002.44 1003.17 1004.00 1004.77 1005.36 1006.16 1006.99 1007.53 1008.02 1008.64 1009.42 1010.06
1004.67 1003.81 1003.61 1002.55 1002.26 1001.99 1000.96 1000.09 1000.25 1000.01 999.82 999.25 997.91 997.12 997.92 998.01 997.53 997.31 997.30 997.16 997.04 997.09 997.36 997.63 997.98 998.39 998.77 999.06 999.48 1000.16 1000.79 1001.28 1001.89 1002.83 1003.66 1004.56 1005.47 1006.17 1006.88 1007.59 1008.29 1008.83 1009.34 1009.81
1004.78 1004.07 1004.86 1003.11 1003.34 1002.82 1000.86 999.97 1000.15 999.97 999.29 998.06 997.52 994.57 997.44 997.09 996.86 996.54 996.39 996.44 996.14 996.05 996.17 996.43 996.71 997.16 997.56 998.01 998.92 999.66 1000.21 1000.83 1001.43 1002.14 1002.89 1003.84 1004.92 1005.91 1006.69 1007.58 1008.37 1009.03 1009.39 1009.74
1004.79 1005.05 1005.69 1003.30 1004.98 1004.18 1000.70 999.89 999.34 998.32 998.27 998.13 996.40 994.50 997.20 996.72 996.39 995.76 995.78 995.63 995.41 995.39 995.40 995.69 995.98 996.37 996.99 997.66 998.28 998.97 999.72 1000.33 1001.04 1001.83 1002.78 1003.69 1004.63 1005.69 1006.59 1007.41 1008.28 1009.07 1009.47 1009.13
1004.62 1005.18 1006.11 1005.19 1006.48 1004.70 997.19 999.08 998.80 998.09 997.14 997.03 996.03 996.12 996.09 995.49 995.14 995.10 995.11 995.02 994.77 994.86 995.11 995.37 995.79 996.14 996.61 997.32 998.00 998.69 999.42 999.99 1000.68 1001.60 1002.56 1003.45 1004.48 1005.73 1006.86 1007.68 1008.38 1008.74 1008.77 1009.34
1005.18 1005.96 1006.94 1007.35 1006.23 1003.08 998.50 1000.00 999.29 997.82 996.20 996.32 995.64 995.25 994.89 994.68 994.47 994.24 994.44 994.33 994.42 994.47 994.73 995.17 995.89 996.61 997.30 997.86 998.39 999.21 999.90 1000.33 1001.22 1001.95 1002.64 1003.46 1004.63 1005.70 1006.61 1007.31 1008.01 1008.33 1008.54 1009.08
1005.01 1006.07 1007.29 1007.66 1006.32 1002.99 998.35 998.43 997.77 997.92 995.33 996.42 995.82 995.29 995.21 995.09 994.45 994.30 994.33 994.39 994.50 994.56 994.81 995.54 996.42 997.07 997.87 998.47 998.97 999.71 1000.21 1000.70 1001.35 1002.17 1002.82 1003.46 1004.40 1005.59 1006.38 1007.14 1007.63 1008.36 1008.83 1009.30
1004.47 1005.10 1005.31 1005.84 1005.18 1001.06 999.09 999.13 998.51 997.81 996.63 995.69 995.60 995.43 995.42 995.31 995.02 994.76 994.86 995.04 995.42 995.52 995.99 996.83 997.54 997.81 998.41 999.34 999.93 1000.41 1000.84 1001.21 1001.70 1002.21 1002.81 1003.81 1004.69 1005.38 1006.04 1007.01 1007.79 1008.35 1008.89 1009.32
1003.08 1003.73 1003.98 1004.58 1004.25 1000.35 999.42 998.66 998.66 997.11 997.20 996.99 996.92 996.27 995.91 996.00 995.84 995.62 995.43 995.72 996.19 996.59 997.15 997.75 998.09 998.35 998.66 999.52 1000.21 1000.83 1001.88 1002.28 1002.59 1003.04 1003.47 1004.29 1005.16 1005.97 1006.59 1007.33 1007.74 1008.19 1008.76 1009.38
1001.97 1001.86 1002.05 1002.16 999.99 999.87 999.09 998.43 998.20 998.37 998.63 998.78 998.31 997.89 997.52 996.94 996.53 996.75 996.63 996.55 996.85 997.39 997.67 998.24 998.73 998.90 999.33 1000.06 1000.76 1001.27 1002.14 1002.76 1003.26 1003.82 1004.70 1005.52 1006.03 1006.70 1007.21 1007.57 1007.91 1008.43 1008.65 1009.32
1000.97 1000.82 1001.06 1001.09 999.46 999.60 999.62 999.96 1000.66 1000.98 1000.62 1000.77 1000.56 999.58 999.50 999.26 998.40 998.15 998.49 997.87 998.23 998.43 998.61 998.69 999.16 999.59 1000.03 1000.58 1001.43 1002.21 1003.00 1003.64 1004.00 1004.77 1005.49 1006.54 1007.28 1007.92 1008.03 1008.02 1008.22 1008.83 1009.16 1009.37
1002.90 1001.91 1001.22 1000.77 1000.20 1000.66 1000.51 1001.62 1002.11 1001.87 1001.70 1001.76 1001.78 1001.11 1000.99 1001.22 1000.89 999.93 1000.74 1000.16 999.65 999.66 999.62 999.61 999.77 1000.15 1000.49 1001.41 1001.91 1002.59 1003.43 1004.18 1004.47 1004.93 1005.92 1006.70 1007.09 1007.56 1008.03 1008.41 1008.70 1008.77 1009.10 1009.35
1002.91 1001.74 1002.05 1002.03 1002.33 1002.72 1001.73 1001.88 1001.63 1001.69 1002.02 1001.45 1001.34 1001.52 1001.55 1001.19 1001.57 1001.30 1001.27 1001.08 1000.79 1000.60 1000.58 1000.27 1000.44 1000.85 1001.16 1002.48 1003.52 1003.92 1004.68 1004.94 1005.38 1005.64 1006.10 1006.84 1007.38 1007.89 1008.25 1008.45 1008.95 1008.80 1008.92 1009.02
Thickness
5745 5731 5725 5743 5749 5748 5749 5749 5746 5769 5789 5775 5761 5761 5772 5788 5795 5794 5793 5793 5794 5795 5802 5804 5804 5804 5799 5795 5788 5782 5770 5757 5745 5736 5732 5728 5724 5718 5715 5712 5707 5700 5696 5692
5735 5726 5747 5753 5754 5750 5747 5739 5739 5759 5774 5769 5763 5758 5770 5783 5791 5797 5796 5794 5794 5795 5797 5800 5802 5801 5799 5794 5787 5779 5770 5763 5750 5739 5731 5724 5720 5717 5712 5707 5702 5697 5695 5690
5727 5747 5755 5743 5740 5737 5736 5729 5733 5739 5759 5766 5754 5747 5762 5784 5794 5798 5803 5803 5803 5799 5796 5796 5798 5794 5793 5789 5784 5778 5770 5763 5756 5743 5728 5719 5716 5710 5706 5703 5702 5697 5693 5687
5739 5759 5750 5735 5730 5739 5722 5747 5745 5741 5733 5719 5757 5724 5764 5783 5790 5791 5795 5796 5798 5800 5795 5794 5789 5785 5784 5780 5779 5775 5771 5762 5757 5748 5733 5720 5712 5708 5707 5702 5697 5692 5687 5681
5735 5743 5738 5731 5731 5742 5729 5742 5738 5737 5729 5727 5737 5725 5754 5781 5779 5787 5792 5793 5794 5793 5788 5784 5781 5781 5780 5777 5773 5768 5764 5757 5750 5746 5739 5729 5717 5709 5705 5700 5696 5692 5685 5676
5738 5757 5746 5742 5748 5743 5744 5729 5729 5728 5721 5698 5728 5725 5741 5761 5778 5790 5783 5785 5783 5781 5778 5777 5777 5773 5768 5768 5763 5758 5752 5750 5744 5734 5728 5724 5716 5706 5697 5693 5687 5681 5678 5670
5730 5734 5744 5744 5730 5738 5727 5713 5693 5691 5693 5699 5747 5735 5749 5780 5781 5777 5771 5770 5771 5770 5768 5767 5762 5756 5757 5755 5749 5744 5744 5740 5737 5731 5724 5718 5714 5707 5699 5691 5682 5674 5666 5657
5717 5711 5738 5745 5734 5726 5718 5716 5695 5677 5689 5706 5742 5713 5742 5778 5781 5779 5776 5774 5768 5767 5764 5760 5758 5756 5753 5747 5742 5735 5733 5732 5730 5724 5718 5712 5707 5701 5694 5684 5675 5665 5657 5649
5720 5724 5758 5743 5740 5735 5726 5707 5724 5698 5707 5692 5711 5733 5755 5771 5768 5770 5767 5767 5761 5761 5758 5753 5750 5747 5745 5742 5737 5730 5725 5723 5719 5714 5709 5704 5700 5693 5685 5675 5665 5658 5651 5644
5725 5704 5739 5741 5731 5738 5727 5733 5697 5700 5663 5663 5696 5715 5728 5740 5749 5752 5757 5756 5755 5755 5753 5751 5746 5741 5739 5737 5734 5729 5724 5719 5712 5705 5701 5697 5694 5688 5680 5671 5661 5653 5645 5635
5723 5706 5712 5732 5707 5708 5714 5698 5707 5703 5694 5671 5664 5688 5742 5735 5735 5736 5742 5753 5752 5749 5747 5742 5739 5735 5733 5728 5724 5721 5716 5712 5708 5702 5697 5691 5684 5675 5667 5659 5651 5642 5632 5620
5714 5704 5688 5703 5732 5723 5719 5710 5710 5682 5679 5691 5684 5682 5734 5736 5736 5741 5741 5746 5746 5745 5742 5739 5735 5732 5726 5722 5720 5720 5712 5708 5704 5699 5690 5682 5673 5664 5653 5644 5637 5627 5619 5610
5700 5684 5670 5681 5699 5716 5706 5710 5707 5701 5692 5674 5659 5682 5728 5729 5726 5730 5731 5735 5736 5734 5734 5731 5725 5720 5719 5718 5716 5714 5714 5706 5700 5694 5679 5671 5663 5654 5645 5636 5627 5618 5606 5593
5679 5683 5679 5665 5680 5699 5692 5704 5706 5695 5670 5671 5676 5687 5702 5711 5713 5728 5727 5732 5732 5731 5730 5722 5722 5725 5718 5719 5715 5712 5702 5700 5694 5685 5672 5661 5653 5642 5630 5621 5613 5603 5590 5580
5658 5657 5668 5678 5682 5681 5682 5687 5689 5682 5687 5673 5691 5696 5701 5707 5717 5721 5720 5725 5727 5725 5723 5723 5719 5719 5717 5713 5710 5703 5694 5691 5683 5671 5659 5648 5638 5628 5619 5607 5597 5587 5578 5568
5652 5642 5645 5652 5664 5666 5668 5678 5673 5673 5684 5692 5695 5705 5713 5718 5718 5718 5722 5720 5720 5721 5724 5724 5719 5717 5713 5709 5700 5695 5688 5679 5672 5664 5653 5642 5630 5617 5606 5594 5582 5572 5564 5557
5636 5632 5623 5631 5638 5638 5638 5662 5672 5678 5682 5682 5680 5713 5701 5699 5705 5715 5714 5717 5716 5718 5718 5714 5715 5714 5709 5701 5694 5685 5677 5669 5659 5650 5639 5627 5615 5605 5590 5578 5567 5555 5549 5548
5625 5622 5618 5614 5600 5583 5681 5684 5673 5668 5684 5687 5693 5692 5698 5706 5714 5714 5716 5710 5713 5714 5711 5709 5705 5702 5697 5694 5687 5678 5668 5658 5647 5635 5623 5613 5600 5585 5572 5561 5551 5543 5539 5530
5622 5608 5582 5578 5585 5616 5655 5647 5653 5660 5671 5684 5689 5697 5701 5706 5706 5704 5713 5713 5707 5708 5708 5703 5697 5688 5681 5674 5668 5657 5647 5639 5627 5616 5608 5598 5585 5570 5560 5549 5537 5531 5524 5515
5611 5599 5574 5559 5566 5591 5656 5664 5669 5658 5647 5680 5682 5681 5679 5684 5668 5682 5696 5694 5695 5698 5694 5687 5680 5673 5663 5655 5649 5638 5628 5621 5612 5601 5592 5583 5573 5558 5546 5535 5523 5513 5505 5497
5580 5582 5575 5572 5568 5608 5644 5648 5654 5625 5650 5678 5676 5673 5667 5662 5672 5678 5679 5678 5676 5672 5667 5660 5651 5649 5644 5632 5623 5615 5608 5601 5595 5585 5577 5564 5555 5542 5532 5519 5508 5498 5490 5481
5579 5574 5576 5575 5570 5590 5639 5644 5620 5648 5651 5652 5651 5656 5653 5653 5656 5659 5661 5656 5649 5647 5641 5633 5626 5623 5621 5612 5602 5594 5581 5575 5571 5562 5553 5542 5532 5520 5510 5499 5493 5486 5478 5469
5577 5587 5586 5588 5605 5623 5630 5630 5638 5631 5622 5621 5626 5634 5637 5639 5639 5635 5633 5631 5630 5624 5618 5613 5603 5602 5597 5588 5580 5573 5561 5552 5544 5536 5523 5512 5502 5494 5487 5481 5477 5468 5464 5453
5596 5595 5582 5584 5611 5613 5615 5606 5592 5591 5595 5594 5596 5603 5601 5603 5612 5610 5603 5608 5605 5599 5595 5593 5585 5578 5573 5566 5556 5547 5535 5525 5520 5509 5499 5488 5477 5469 5465 5460 5455 5448 5443 5437
5556 5564 5571 5573 5586 5576 5583 5569 5568 5571 5570 5568 5568 5573 5572 5568 5571 5575 5564 5568 5571 5568 5568 5566 5561 5555 5549 5538 5534 5528 5515 5505 5501 5493 5482 5473 5466 5459 5451 5444 5436 5430 5426 5420
5547 5549 5537 5529 5536 5533 5551 5553 5556 5554 5549 5553 5549 5547 5547 5548 5545 5545 5541 5542 5541 5539 5537 5544 5539 5527 5526 5511 5497 5491 5483 5478 5474 5469 5463 5454 5445 5439 5432 5428 5421 5414 5411 5406